Regional Weather Roundup
Issued by NWS Cleveland, OH

Home | Current Version | Previous Version | Text Only | Print | Product List | Glossary Off
Versions: 1 2 3 4 5 6 7 8 9 10 11 12 13 14 15 16 17 18 19 20 21 22 23 24 25 26 27 28 29 30 31 32 33 34 35 36 37 38 39 40 41 42 43 44 45 46 47 48 49 50

000
ASUS41 KCLE 051610
RWRCLE
OHIO REGIONAL WEATHER ROUNDUP
NATIONAL WEATHER SERVICE WILMINGTON, OH
1200 PM EDT THU MAY 05 2016

NOTE: "FAIR" INDICATES FEW OR NO CLOUDS BELOW 12,000 FEET WITH NO
SIGNIFICANT WEATHER AND/OR OBSTRUCTIONS TO VISIBILITY.

OHZ001>008-015>018-024>027-034-035-043-044-051700-
   NORTHWEST OHIO

CITY           SKY/WX    TMP DP  RH WIND       PRES   REMARKS
DEFIANCE       FAIR      62  45  53 NE15G22   29.86S
FINDLAY        PTSUNNY   56  45  66 NE13      29.83R
TOLEDO EXPRESS FAIR      61  43  51 NE15G25   29.85R
TOLEDO EXEC    FAIR      59  45  59 NE9G21    29.86R
LIMA           CLOUDY    51  47  86 N14       29.83S
$$

OHZ009>014-019>023-028>033-038-089-051700-
   NORTHEAST OHIO

CITY           SKY/WX    TMP DP  RH WIND       PRES   REMARKS
CLE-HOPKINS    CLOUDY    52  48  86 N15       29.83R
CLE-LAKEFRONT  CLOUDY    52  48  86 NE22      29.80R FOG
CUY CO. ARPT   CLOUDY    54  50  87 E12       29.80R
LORAIN-ELYRIA  CLOUDY    49  46  90 NE15      29.82R
ASHTABULA      CLOUDY    52  47  83 NE10      29.79S
AKRON-CANTON   LGT RAIN  53  47  79 N6        29.77R
WOOSTER        CLOUDY    53  48  83 N8        29.78S
MANSFIELD      CLOUDY    51  48  89 N12       29.79S
YOUNGSTOWN     CLOUDY    54  48  80 N5        29.75S
$$

OHZ042-051>053-060>062-070>072-077>081-051700-
  SOUTHWEST OHIO

CITY           SKY/WX    TMP DP  RH WIND       PRES   REMARKS
CINC-COVINGTON CLOUDY    51  37  58 NW8       29.84R
CINC-LUNKEN    CLOUDY    52  40  63 N8G17     29.85S
HAMILTON       CLOUDY    49  39  68 N7        29.87R
DAYTON         CLOUDY    46  43  89 NW12      29.85R
WRIGHT-PAT AFB CLOUDY    47  45  91 NW8       29.83S
DAYTON GENERAL CLOUDY    47  40  76 NW10      29.84R
WILMINGTON     CLOUDY    48  38  68 NW16      29.83R
$$

OHZ036-037-039>041-045>050-054>059-063>069-073>076-082>088-051700-
  CENTRAL AND SOUTHEAST OHIO

CITY           SKY/WX    TMP DP  RH WIND       PRES   REMARKS
COLUMBUS       PTSUNNY   47  45  93 N10       29.80R
OSU AIRPORT    CLOUDY    50  46  86 N9        29.80R
BOLTON FIELD   CLOUDY    48  45  87 N12       29.81S
RICKENBACK AFB CLOUDY    47  43  86 NW8       29.80S
NEWARK         CLOUDY    53  45  74 NW7       29.78S
MARION         CLOUDY    50  46  86 N14       29.81S FOG
LANCASTER      CLOUDY    49  45  86 NW12      29.80S
ZANESVILLE     CLOUDY    55  48  77 N6        29.76S
NEW PHILLY     CLOUDY    55  47  74 N6        29.76S
$$



USA.gov is the U.S. government's official web portal to all federal, state and local government web resources and services.